AAL404 KBOS-KLAX

Flight info

Callsign AAL404
Flight time N/A
Altitude 34000
Route BLZZR6 BLZZR BAF Q480 CANDR J60 DANNR RAV J64 FWA EDENS WELKY Q90 DNERO ANJLL4
Aircraft A320/M-SDE3FGHIRWY/LB1

Departure

Time N/A
Airport Boston Logan International Airport (KBOS)

Arrival

Time 2026-04-22 14:54
Airport Los Angeles International Airport (KLAX)
Time Latitude Longitude Altitude Speed Heading
2026-04-22 13:41 36.69526 -110.00460 33929 ft 384 kts 249°
2026-04-22 13:41 36.68488 -110.03530 33930 ft 384 kts 249°
2026-04-22 13:42 36.66419 -110.09682 33925 ft 385 kts 249°
2026-04-22 13:42 36.63959 -110.16996 33916 ft 385 kts 250°
2026-04-22 13:43 36.59821 -110.29276 33932 ft 385 kts 250°
2026-04-22 13:43 36.55664 -110.41561 33939 ft 385 kts 250°
2026-04-22 13:44 36.51494 -110.53802 33963 ft 383 kts 250°
2026-04-22 13:44 36.47345 -110.65933 33943 ft 380 kts 250°
2026-04-22 13:45 36.43214 -110.77972 33941 ft 378 kts 250°
2026-04-22 13:45 36.39079 -110.89960 33952 ft 376 kts 250°
2026-04-22 13:46 36.34986 -111.01787 33948 ft 375 kts 250°
2026-04-22 13:46 36.30864 -111.13657 33943 ft 374 kts 250°
2026-04-22 13:47 36.26749 -111.25470 33951 ft 373 kts 250°
2026-04-22 13:47 36.22631 -111.37273 33941 ft 372 kts 250°
2026-04-22 13:48 36.18485 -111.49057 33907 ft 374 kts 250°
2026-04-22 13:48 36.14308 -111.60898 33925 ft 376 kts 250°
2026-04-22 13:49 36.10116 -111.72763 33934 ft 376 kts 250°
2026-04-22 13:49 36.05979 -111.84533 34046 ft 375 kts 251°
2026-04-22 13:50 36.02220 -111.96492 34145 ft 373 kts 252°
2026-04-22 13:50 35.98422 -112.08409 34205 ft 373 kts 252°
2026-04-22 13:51 35.94606 -112.20250 34201 ft 365 kts 252°
2026-04-22 13:51 35.91430 -112.30099 34146 ft 362 kts 252°
2026-04-22 13:52 35.89559 -112.35888 34121 ft 363 kts 252°
2026-04-22 13:52 35.87689 -112.41634 34094 ft 363 kts 252°
2026-04-22 13:53 35.85803 -112.47418 34020 ft 363 kts 252°
2026-04-22 13:53 35.83911 -112.53213 34023 ft 363 kts 252°
2026-04-22 13:54 35.82030 -112.58985 34021 ft 362 kts 252°
2026-04-22 13:54 35.80168 -112.64708 34022 ft 362 kts 252°
2026-04-22 13:55 35.78289 -112.70459 34020 ft 362 kts 252°
2026-04-22 13:55 35.76399 -112.76202 34015 ft 362 kts 252°
2026-04-22 13:56 35.74510 -112.81939 34010 ft 361 kts 252°
2026-04-22 13:56 35.72618 -112.87673 34006 ft 361 kts 252°
2026-04-22 13:57 35.70723 -112.93404 34009 ft 361 kts 252°
2026-04-22 13:57 35.68830 -112.99128 34005 ft 361 kts 251°
2026-04-22 13:58 35.66933 -113.04857 34008 ft 362 kts 252°
2026-04-22 13:58 35.65032 -113.10593 33968 ft 362 kts 252°
2026-04-22 13:59 35.63127 -113.16320 33998 ft 362 kts 251°
2026-04-22 13:59 35.61217 -113.22047 34006 ft 361 kts 251°
2026-04-22 14:00 35.59312 -113.27756 34003 ft 361 kts 251°
2026-04-22 14:00 35.57407 -113.33461 34007 ft 361 kts 251°
2026-04-22 14:01 35.55510 -113.39116 34007 ft 361 kts 251°
2026-04-22 14:01 35.53588 -113.44819 34000 ft 361 kts 251°
2026-04-22 14:02 35.51671 -113.50506 34001 ft 361 kts 251°
2026-04-22 14:02 35.49746 -113.56205 34001 ft 361 kts 251°
2026-04-22 14:03 35.47834 -113.61884 34013 ft 360 kts 251°
2026-04-22 14:03 35.45915 -113.67570 34032 ft 360 kts 251°
2026-04-22 14:04 35.43991 -113.73248 34059 ft 361 kts 251°
2026-04-22 14:04 35.42066 -113.78923 34086 ft 360 kts 251°
2026-04-22 14:05 35.40150 -113.84547 34107 ft 360 kts 251°
2026-04-22 14:06 35.37255 -113.93026 34126 ft 359 kts 251°
2026-04-22 14:06 35.35329 -113.98665 34134 ft 359 kts 251°
2026-04-22 14:07 35.33400 -114.04298 34126 ft 359 kts 251°
2026-04-22 14:07 35.31467 -114.09934 34113 ft 358 kts 251°
2026-04-22 14:08 35.29531 -114.15571 34097 ft 359 kts 251°
2026-04-22 14:08 35.27589 -114.21207 34076 ft 359 kts 251°
2026-04-22 14:09 35.25651 -114.26831 34059 ft 359 kts 251°
2026-04-22 14:09 35.23705 -114.32450 34039 ft 358 kts 251°
2026-04-22 14:10 35.21760 -114.38065 34021 ft 358 kts 251°
2026-04-22 14:10 35.19814 -114.43671 34042 ft 358 kts 251°
2026-04-22 14:11 35.17871 -114.49267 34034 ft 357 kts 251°
2026-04-22 14:11 35.15920 -114.54849 34044 ft 356 kts 251°
2026-04-22 14:12 35.13991 -114.60392 34088 ft 356 kts 251°
2026-04-22 14:12 35.12057 -114.65952 34083 ft 356 kts 251°
2026-04-22 14:13 35.10126 -114.71516 34075 ft 355 kts 251°
2026-04-22 14:13 35.08507 -114.76174 34071 ft 355 kts 251°
2026-04-22 14:14 35.06259 -114.82632 34011 ft 356 kts 251°
2026-04-22 14:14 35.04642 -114.87261 34015 ft 357 kts 251°
2026-04-22 14:15 35.02599 -114.92840 34021 ft 359 kts 248°
2026-04-22 14:15 35.00273 -114.98223 34026 ft 362 kts 246°
2026-04-22 14:16 34.97855 -115.03614 34045 ft 362 kts 246°
2026-04-22 14:16 34.95473 -115.09022 34052 ft 362 kts 247°
2026-04-22 14:17 34.93119 -115.14438 34069 ft 361 kts 247°
2026-04-22 14:17 34.90770 -115.19860 34073 ft 362 kts 247°
2026-04-22 14:18 34.88412 -115.25270 34078 ft 361 kts 247°
2026-04-22 14:18 34.86050 -115.30678 34085 ft 361 kts 247°
2026-04-22 14:19 34.83690 -115.36076 34051 ft 362 kts 246°
2026-04-22 14:19 34.81319 -115.41497 34064 ft 363 kts 246°
2026-04-22 14:20 34.77856 -115.49693 34068 ft 362 kts 249°
2026-04-22 14:20 34.75834 -115.55302 34086 ft 362 kts 250°
2026-04-22 14:21 34.72824 -115.63728 34093 ft 362 kts 250°
2026-04-22 14:22 34.69735 -115.72092 34084 ft 363 kts 249°
2026-04-22 14:23 34.66616 -115.80493 34097 ft 364 kts 249°
2026-04-22 14:23 34.64538 -115.86099 34098 ft 364 kts 249°
2026-04-22 14:24 34.62460 -115.91709 34111 ft 364 kts 249°
2026-04-22 14:24 34.60394 -115.97319 34123 ft 364 kts 249°
2026-04-22 14:25 34.58329 -116.02930 34123 ft 363 kts 249°
2026-04-22 14:25 34.56261 -116.08532 34122 ft 363 kts 249°
2026-04-22 14:26 34.54202 -116.14090 34118 ft 363 kts 249°
2026-04-22 14:26 34.52130 -116.19678 34086 ft 364 kts 249°
2026-04-22 14:27 34.50045 -116.25283 34093 ft 365 kts 249°
2026-04-22 14:27 34.47958 -116.30891 34072 ft 366 kts 248°
2026-04-22 14:28 34.45859 -116.36524 34078 ft 367 kts 248°
2026-04-22 14:28 34.44799 -116.39361 33660 ft 370 kts 248°
2026-04-22 14:28 34.43744 -116.42182 33219 ft 364 kts 248°
2026-04-22 14:28 34.42703 -116.44960 32741 ft 360 kts 248°
2026-04-22 14:29 34.41669 -116.47717 31947 ft 363 kts 248°
2026-04-22 14:29 34.40587 -116.50511 30971 ft 369 kts 247°
2026-04-22 14:29 34.39460 -116.53279 30020 ft 364 kts 246°
2026-04-22 14:29 34.38322 -116.55998 28961 ft 359 kts 246°
2026-04-22 14:30 34.37195 -116.58678 27938 ft 354 kts 245°
2026-04-22 14:30 34.36084 -116.61322 26982 ft 350 kts 245°
2026-04-22 14:30 34.34996 -116.63929 26206 ft 343 kts 245°
2026-04-22 14:30 34.33948 -116.66452 25783 ft 328 kts 246°
2026-04-22 14:31 34.32947 -116.68871 25368 ft 314 kts 246°
2026-04-22 14:31 34.32005 -116.71191 24979 ft 301 kts 246°
2026-04-22 14:31 34.31094 -116.73470 24610 ft 302 kts 246°
2026-04-22 14:31 34.30194 -116.75738 24245 ft 303 kts 246°
2026-04-22 14:32 34.29281 -116.78027 23855 ft 303 kts 246°
2026-04-22 14:32 34.28363 -116.80318 23409 ft 302 kts 246°
2026-04-22 14:32 34.27447 -116.82594 23001 ft 299 kts 246°
2026-04-22 14:32 34.26540 -116.84846 22593 ft 297 kts 246°
2026-04-22 14:33 34.25639 -116.87079 22211 ft 295 kts 246°
2026-04-22 14:33 34.24742 -116.89303 21799 ft 293 kts 246°
2026-04-22 14:33 34.23849 -116.91514 21393 ft 292 kts 246°
2026-04-22 14:33 34.22958 -116.93710 20979 ft 291 kts 246°
2026-04-22 14:34 34.22069 -116.95900 20563 ft 290 kts 246°
2026-04-22 14:34 34.21195 -116.98094 20151 ft 288 kts 249°
2026-04-22 14:34 34.20539 -117.00374 19762 ft 288 kts 253°
2026-04-22 14:34 34.19921 -117.02687 19347 ft 288 kts 253°
2026-04-22 14:35 34.19307 -117.04984 18936 ft 288 kts 253°
2026-04-22 14:35 34.18687 -117.07284 18530 ft 288 kts 253°
2026-04-22 14:35 34.18064 -117.09590 18084 ft 288 kts 253°
2026-04-22 14:35 34.17439 -117.11898 17525 ft 292 kts 253°
2026-04-22 14:36 34.16807 -117.14227 17089 ft 291 kts 253°
2026-04-22 14:36 34.16176 -117.16543 16727 ft 289 kts 253°
2026-04-22 14:36 34.15533 -117.18887 16498 ft 297 kts 253°
2026-04-22 14:36 34.14881 -117.21256 16177 ft 298 kts 253°
2026-04-22 14:37 34.14226 -117.23630 15856 ft 297 kts 253°
2026-04-22 14:37 34.13575 -117.25989 15537 ft 296 kts 253°
2026-04-22 14:37 34.12924 -117.28344 15213 ft 295 kts 253°
2026-04-22 14:37 34.12274 -117.30689 14901 ft 294 kts 253°
2026-04-22 14:38 34.11625 -117.33024 14584 ft 293 kts 253°
2026-04-22 14:38 34.10980 -117.35347 14268 ft 291 kts 253°
2026-04-22 14:38 34.10343 -117.37659 13952 ft 290 kts 254°
2026-04-22 14:38 34.09742 -117.39980 13775 ft 290 kts 255°
2026-04-22 14:39 34.09162 -117.42306 13587 ft 290 kts 255°
2026-04-22 14:39 34.08588 -117.44636 13402 ft 289 kts 255°
2026-04-22 14:39 34.08015 -117.46957 13223 ft 289 kts 255°
2026-04-22 14:40 34.07055 -117.50812 12870 ft 290 kts 255°
2026-04-22 14:40 34.06279 -117.53887 12269 ft 288 kts 255°
2026-04-22 14:40 34.05695 -117.56188 11854 ft 286 kts 255°
2026-04-22 14:40 34.05111 -117.58479 11443 ft 285 kts 255°
2026-04-22 14:41 34.04529 -117.60758 11035 ft 284 kts 255°
2026-04-22 14:41 34.03954 -117.63007 10633 ft 283 kts 255°
2026-04-22 14:41 34.03372 -117.65274 10260 ft 281 kts 255°
2026-04-22 14:41 34.02809 -117.67456 9955 ft 268 kts 255°
2026-04-22 14:42 34.02275 -117.69578 9900 ft 256 kts 258°
2026-04-22 14:42 34.01995 -117.71731 9885 ft 262 kts 264°
2026-04-22 14:42 34.01784 -117.73911 9581 ft 261 kts 265°
2026-04-22 14:42 34.01578 -117.76073 9287 ft 260 kts 265°
2026-04-22 14:43 34.01372 -117.78239 8994 ft 260 kts 265°
2026-04-22 14:43 34.01165 -117.80400 8697 ft 259 kts 264°
2026-04-22 14:43 34.00956 -117.82556 8402 ft 259 kts 265°
2026-04-22 14:43 34.00749 -117.84711 8106 ft 258 kts 265°
2026-04-22 14:44 34.00543 -117.86843 7813 ft 255 kts 265°
2026-04-22 14:44 34.00337 -117.88955 7524 ft 253 kts 264°
2026-04-22 14:44 34.00130 -117.91054 7210 ft 251 kts 264°
2026-04-22 14:44 33.99925 -117.93134 6926 ft 249 kts 264°
2026-04-22 14:45 33.99723 -117.95195 6645 ft 246 kts 265°
2026-04-22 14:45 33.99527 -117.97194 6357 ft 234 kts 265°
2026-04-22 14:45 33.99341 -117.99092 6089 ft 223 kts 264°
2026-04-22 14:45 33.99163 -118.00903 5844 ft 217 kts 264°
2026-04-22 14:46 33.98983 -118.02712 5596 ft 210 kts 264°
2026-04-22 14:46 33.98809 -118.04424 5364 ft 201 kts 264°
2026-04-22 14:46 33.98648 -118.06026 5174 ft 188 kts 263°
2026-04-22 14:46 33.98498 -118.07539 4944 ft 177 kts 263°
2026-04-22 14:47 33.98355 -118.08971 4722 ft 167 kts 263°
2026-04-22 14:47 33.98220 -118.10334 4529 ft 156 kts 263°
2026-04-22 14:47 33.98094 -118.11591 4361 ft 147 kts 263°
2026-04-22 14:47 33.97976 -118.12778 4219 ft 142 kts 263°
2026-04-22 14:48 33.97859 -118.13953 4064 ft 141 kts 263°
2026-04-22 14:48 33.97742 -118.15126 3903 ft 141 kts 263°
2026-04-22 14:48 33.97624 -118.16299 3755 ft 141 kts 263°
2026-04-22 14:48 33.97507 -118.17475 3596 ft 141 kts 263°
2026-04-22 14:49 33.97389 -118.18647 3435 ft 141 kts 263°
2026-04-22 14:49 33.97271 -118.19821 3272 ft 141 kts 263°
2026-04-22 14:49 33.97153 -118.20999 3110 ft 142 kts 263°
2026-04-22 14:49 33.97036 -118.22164 2951 ft 141 kts 263°
2026-04-22 14:50 33.96916 -118.23355 2788 ft 142 kts 263°
2026-04-22 14:50 33.96799 -118.24521 2627 ft 142 kts 263°
2026-04-22 14:50 33.96678 -118.25721 2464 ft 142 kts 263°
2026-04-22 14:50 33.96561 -118.26881 2334 ft 139 kts 263°
2026-04-22 14:51 33.96443 -118.28048 2257 ft 138 kts 263°
2026-04-22 14:51 33.96327 -118.29195 2217 ft 137 kts 263°
2026-04-22 14:51 33.96211 -118.30339 2205 ft 138 kts 263°
2026-04-22 14:51 33.96096 -118.31478 1944 ft 138 kts 263°
2026-04-22 14:52 33.95983 -118.32617 1597 ft 136 kts 263°
2026-04-22 14:52 33.95876 -118.33748 1343 ft 136 kts 263°
2026-04-22 14:52 33.95757 -118.34868 1092 ft 136 kts 262°
2026-04-22 14:52 33.95639 -118.35999 847 ft 136 kts 263°
2026-04-22 14:53 33.95522 -118.37132 676 ft 137 kts 263°
2026-04-22 14:53 33.95405 -118.38259 479 ft 135 kts 264°
2026-04-22 14:53 33.95294 -118.39375 260 ft 134 kts 263°
2026-04-22 14:53 33.95179 -118.40483 116 ft 135 kts 263°
2026-04-22 14:54 33.95105 -118.41197 93 ft 114 kts 264°
2026-04-22 14:54 33.95033 -118.41928 96 ft 65 kts 263°
2026-04-22 14:54 33.94942 -118.42362 95 ft 24 kts 237°
2026-04-22 14:54 33.94895 -118.42431 96 ft 8 kts 226°
2026-04-22 14:55 33.94868 -118.42460 96 ft 5 kts 219°
2026-04-22 14:55 33.94864 -118.42464 97 ft 0 kts 217°
2026-04-22 14:58 33.94856 -118.42470 89 ft 6 kts 212°
2026-04-22 14:58 33.94808 -118.42488 100 ft 7 kts 188°
2026-04-22 14:58 33.94752 -118.42487 99 ft 10 kts 175°
2026-04-22 14:59 33.94669 -118.42451 96 ft 16 kts 123°
2026-04-22 14:59 33.94675 -118.42309 96 ft 19 kts 82°
2026-04-22 14:59 33.94693 -118.42136 94 ft 22 kts 83°
2026-04-22 14:59 33.94710 -118.41964 93 ft 21 kts 83°
2026-04-22 15:00 33.94727 -118.41796 96 ft 20 kts 83°
2026-04-22 15:00 33.94739 -118.41672 93 ft 10 kts 83°
2026-04-22 15:00 33.94734 -118.41582 93 ft 12 kts 125°
2026-04-22 15:00 33.94660 -118.41604 93 ft 15 kts 251°
2026-04-22 15:01 33.94625 -118.41705 93 ft 9 kts 209°
2026-04-22 15:01 33.94582 -118.41710 93 ft 7 kts 175°
2026-04-22 15:01 33.94525 -118.41701 93 ft 10 kts 173°
2026-04-22 15:01 33.94448 -118.41689 95 ft 13 kts 173°
2026-04-22 15:02 33.94381 -118.41679 94 ft 4 kts 173°
2026-04-22 15:02 33.94352 -118.41671 94 ft 5 kts 154°
2026-04-22 15:02 33.94343 -118.41641 93 ft 3 kts 88°
2026-04-22 15:02 33.94346 -118.41603 94 ft 2 kts 82°
2026-04-22 15:03 33.94348 -118.41591 94 ft 3 kts 83°
2026-04-22 15:03 33.94348 -118.41583 93 ft 0 kts 83°
2026-04-22 15:03 33.94349 -118.41577 93 ft 1 kts 83°